[[{"header":{"parameterUnit":"m.s-1","parameterCategory":1,"la1":30.2992,"la2":30.254,"lo1":-89.0895,"lo2":-89.0443,"dy":0.0025,"dx":0.0025,"nx":19,"ny":19,"refTime":"2026-03-29T09:00:00:Z","depth":0,"parameterNumber":2,"parameterNumberName":"U-component_of_WINDS"},"data":[0,0,0,-5.8248,-5.8252,-5.8443,-5.8444,-5.8687,-5.8689,0,0,0,0,0,0,0,0,0,0,0,-5.8191,-5.8193,-5.8248,-5.8253,-5.8443,-5.8444,-5.8687,-5.8689,0,0,0,0,0,0,0,0,0,0,0,-5.819,-5.8192,-5.8194,-5.8253,-5.8443,-5.8444,-5.8686,-5.8543,0,0,0,0,0,0,0,0,0,0,-5.8357,-5.8304,-5.8192,-5.8194,-5.8254,-5.8443,-5.8444,-5.8536,-5.8552,-5.8601,0,-5.8644,0,-5.8671,-5.8706,-5.8707,0,0,0,-5.8253,-5.8291,-5.8343,-5.8195,-5.8256,-5.8442,-5.8357,-5.8545,-5.8563,-5.8622,-5.8647,-5.8656,-5.8675,-5.8707,-5.8709,-5.8988,-5.8989,0,0,-5.8242,-5.8225,-5.8331,-5.8355,-5.8325,-5.8351,-5.8363,-5.8556,-5.8582,-5.8648,-5.8662,-5.8679,-5.8709,-5.8711,-5.8987,-5.8988,0,0,0,-5.8212,-5.8218,-5.8265,-5.8345,-5.8379,-5.8357,-5.837,-5.8574,-5.8591,-5.8665,-5.8681,-5.871,-5.8713,-5.8985,-5.8987,-5.9031,0,0,0,-5.8205,-5.82,-5.826,-5.8252,-5.8375,-5.8479,-5.8384,-5.8577,-5.86,-5.868,-5.871,-5.8716,-5.8984,-5.8986,-5.9027,-5.9054,0,0,0,-5.8179,-5.8197,-5.8224,-5.825,-5.8332,-5.8476,-5.8504,-5.8583,-5.861,-5.8707,-5.8716,-5.8983,-5.8986,-5.9023,-5.9048,-5.912,0,0,0,-5.8145,-5.8262,-5.8225,-5.8362,-5.833,-5.8503,-5.8503,-5.8633,-5.8722,-5.8712,-5.8984,-5.8987,-5.9022,-5.9044,-5.9116,-5.9175,-5.9199,0,0,-5.8283,-5.8278,-5.836,-5.8332,-5.8507,-5.8475,-5.8657,-5.8755,-5.8781,-5.8918,-5.8925,-5.9029,-5.9048,-5.9119,-5.9345,-5.9364,0,0,0,-5.8398,-5.8456,-5.8506,-5.859,-5.8668,-5.8736,-5.8808,-5.8845,-5.8961,-5.8848,-5.9077,-5.9089,-5.9131,-5.916,-5.9176,-5.9212,-5.9001,-5.9001,-5.9,-5.8565,-5.8592,-5.8729,-5.8778,-5.886,-5.8933,-5.9001,-5.9062,-5.9067,-5.9121,-5.9159,-5.9293,-5.9327,-5.9339,-5.9376,-5.9196,-5.9197,-5.9197,-5.9197,-5.8766,-5.8851,-5.8854,-5.8987,-5.9015,-5.9128,-5.9205,-5.9204,-5.9312,-5.9266,-5.9305,-5.9249,-5.9358,-5.9392,-5.9201,-5.92,-5.92,-5.9199,-5.9199,-5.8874,-5.892,-5.8963,-5.9085,-5.9178,-5.9225,-5.9329,-5.9352,-5.9374,-5.9413,-5.9455,-5.9455,-5.9454,-5.9433,-5.9433,-5.9434,-5.9434,-5.9434,-5.9435,-5.8968,-5.9016,-5.91,-5.9193,-5.9249,-5.9326,-5.9403,-5.9459,-5.9526,-5.9535,-5.9535,-5.9531,-5.9366,-5.9321,-5.9442,-5.9441,-5.944,-5.9439,-5.9438,-5.9155,-5.9116,-5.9246,-5.9302,-5.9413,-5.9502,-5.9531,-5.9643,-5.9694,-5.9744,-5.9734,-5.9609,-5.9605,-5.9593,-5.9555,-5.973,-5.973,-5.973,-5.973,-5.9243,-5.9245,-5.9381,-5.947,-5.9559,-5.9599,-5.9744,-5.9805,-5.9863,-5.9895,-5.9875,-5.9829,-5.9815,-5.982,-5.9802,-5.9768,-5.9992,-5.9992,-5.9993,-5.9357,-5.9369,-5.9487,-5.9542,-5.9631,-5.9707,-5.9843,-5.9944,-6.0002,-6.0004,-5.992,-5.9909,-5.9836,-5.9812,-5.9806,-5.9778,-5.9716,0,0]},{"header":{"parameterUnit":"m.s-1","parameterCategory":1,"la1":30.2992,"la2":30.254,"lo1":-89.0895,"lo2":-89.0443,"dy":0.0025,"dx":0.0025,"nx":19,"ny":19,"refTime":"2026-03-29T09:00:00:Z","depth":0,"parameterNumber":3,"parameterNumberName":"V-component_of_WINDS"},"data":[0,0,0,3.1474,3.1476,3.1561,3.1561,3.1641,3.1642,0,0,0,0,0,0,0,0,0,0,0,3.1435,3.1435,3.1474,3.1476,3.1561,3.1561,3.1641,3.1642,0,0,0,0,0,0,0,0,0,0,0,3.1435,3.1435,3.1435,3.1476,3.156,3.1561,3.1641,3.1587,0,0,0,0,0,0,0,0,0,0,3.1509,3.1459,3.1435,3.1435,3.1477,3.156,3.1561,3.1584,3.159,3.1592,0,3.1592,0,3.1618,3.1646,3.1646,0,0,0,3.1486,3.1454,3.1491,3.1435,3.1477,3.156,3.1525,3.1588,3.1594,3.1599,3.1594,3.1597,3.162,3.1646,3.1646,3.1631,3.1631,0,0,3.1481,3.1442,3.1486,3.1494,3.1482,3.1522,3.1528,3.1592,3.1582,3.1594,3.16,3.1621,3.1646,3.1647,3.1632,3.1631,0,0,0,3.1461,3.1438,3.1473,3.149,3.1507,3.1525,3.1531,3.1579,3.1594,3.1601,3.1622,3.1647,3.1647,3.1632,3.1632,3.1568,0,0,0,3.1459,3.1426,3.1471,3.1447,3.1506,3.1545,3.1516,3.159,3.1598,3.1622,3.1647,3.1648,3.1633,3.1632,3.1571,3.1544,0,0,0,3.1434,3.1424,3.1431,3.1445,3.148,3.1545,3.1564,3.1593,3.1611,3.1646,3.1648,3.1634,3.1632,3.1574,3.1548,3.1528,0,0,0,3.1396,3.1372,3.143,3.1411,3.1479,3.1506,3.1564,3.1585,3.1608,3.1647,3.1633,3.1632,3.1575,3.1551,3.1531,3.1504,3.149,0,0,3.1343,3.1364,3.1356,3.1411,3.1417,3.1496,3.1493,3.1549,3.1587,3.1614,3.1614,3.157,3.1549,3.1529,3.1423,3.1411,0,0,0,3.1326,3.132,3.133,3.1352,3.1396,3.1432,3.1494,3.1515,3.154,3.1594,3.1559,3.1547,3.1537,3.1526,3.1516,3.151,3.1625,3.1625,3.1625,3.1194,3.1247,3.1237,3.13,3.1319,3.1384,3.1404,3.1443,3.1488,3.1479,3.1487,3.1417,3.1402,3.1395,3.1388,3.1478,3.1478,3.1478,3.1477,3.1121,3.1121,3.1184,3.1198,3.1253,3.1263,3.1325,3.1357,3.1373,3.1415,3.1409,3.1449,3.1381,3.1377,3.1473,3.1474,3.1474,3.1475,3.1475,3.104,3.1049,3.1077,3.1114,3.1136,3.12,3.1214,3.1263,3.1308,3.1302,3.1316,3.1317,3.1324,3.1306,3.1305,3.1305,3.1305,3.1305,3.1305,3.0945,3.0979,3.0986,3.1033,3.1053,3.1086,3.1151,3.1172,3.1207,3.1241,3.1241,3.1286,3.1365,3.1383,3.1301,3.1302,3.1302,3.1302,3.1303,3.0851,3.0881,3.0892,3.0912,3.0971,3.0989,3.1052,3.109,3.1114,3.1119,3.1166,3.1217,3.124,3.1249,3.1264,3.1156,3.1156,3.1156,3.1156,3.0782,3.08,3.0823,3.0853,3.0888,3.0946,3.0955,3.1005,3.1061,3.1079,3.1102,3.1126,3.1133,3.1153,3.1163,3.1178,3.1051,3.1051,3.1051,3.0727,3.0751,3.075,3.0809,3.0858,3.0899,3.0908,3.0938,3.1007,3.1047,3.1093,3.1098,3.1139,3.1149,3.1189,3.1204,3.1233,0,0]}]]